Weather History for St. Cloud, MN

Change the Weather History Date:

Wednesday, May 9, 2012

  Actual Average Record
Temperature  
Mean Temperature 54 °F 54 °F  
Max Temperature 65 °F 67 °F 91 °F (1928)
Min Temperature 43 °F 42 °F 21 °F (1945)
Degree Days  
Heating Degree Days 11 11  
Month to date heating degree days 60 111  
Since 1 July heating degree days 6593 8278  
Cooling Degree Days 0 1  
Month to date cooling degree days 5 1  
Year to date cooling degree days 12 3  
Growing Degree Days 4 (Base 50)    
Moisture  
Dew Point 40 °F    
Average Humidity 62    
Maximum Humidity 92    
Minimum Humidity 31    
Precipitation  
Precipitation 0.00 in 0.09 in 3.22 in (1979)
Month to date precipitation 3.88 0.86  
Year to date precipitation 9.44 6.22  
Snow  
Snow 0.00 in 0.00 in T in (1902)
Month to date snowfall 0.0 0.0  
Since 1 July snowfall 27.4 45.7  
Snow Depth 0.00 in    
Sea Level Pressure  
Sea Level Pressure 30.04 in    
Wind  
Wind Speed 4 mph (North)    
Max Wind Speed 9 mph    
Max Gust Speed 13 mph    
Visibility 10 miles    
Events      
T = Trace of Precipitation, MM = Missing Value Source: NWS Daily Summary

Daily Weather History Graph

Daily Weather History Graph

Search for Another Location

Airport:

Trip Planner

Search our weather history database for the weather conditions in past years. The results will help you decide how hot, cold, wet, or windy it might be!

Date:

Astronomy

May. 09, 2012 Rise Set
Actual Time 5:52 AM CDT 8:33 PM CDT
Civil Twilight 5:18 AM CDT 9:07 PM CDT
Nautical Twilight 4:35 AM CDT 9:50 PM CDT
Astronomical Twilight 3:46 AM CDT 10:40 PM CDT
Moon No Moon Rise 9:05 AM CDT (5/9)
Length of Visible Light 15h 49m
Length of Day
14h 41m
Waning Gibbous, 82% of the Moon is Illuminated
May 9
Waning Gibbous
May 12
Last Quarter
May 20
New
May 28
First Quarter
Jun 4
Full

Hourly Weather History & Observations

Time (CDT) Temp. Windchill Dew Point Humidity Pressure Visibility Wind Dir Wind Speed Gust Speed Precip Events Conditions
12:53 AM 51.1 °F - 46.9 °F 86% 30.03 in 10.0 mi North 4.6 mph - N/A   Overcast
1:53 AM 51.1 °F - 46.0 °F 83% 30.05 in 10.0 mi North 4.6 mph - N/A   Overcast
2:53 AM 50.0 °F - 46.0 °F 86% 30.05 in 10.0 mi North 4.6 mph - N/A   Overcast
3:53 AM 50.0 °F - 45.0 °F 83% 30.06 in 10.0 mi North 3.5 mph - N/A   Overcast
4:53 AM 46.9 °F - 43.0 °F 86% 30.07 in 10.0 mi NNW 4.6 mph - N/A   Partly Cloudy
5:53 AM 45.0 °F 42.6 °F 42.1 °F 90% 30.08 in 10.0 mi NNW 4.6 mph - N/A   Clear
6:53 AM 46.9 °F - 43.0 °F 86% 30.09 in 10.0 mi North 4.6 mph - N/A   Clear
7:53 AM 48.9 °F - 44.1 °F 83% 30.11 in 10.0 mi North 6.9 mph - N/A   Clear
8:53 AM 53.1 °F - 44.1 °F 71% 30.11 in 10.0 mi NE 6.9 mph - N/A   Clear
9:53 AM 55.0 °F - 39.9 °F 57% 30.11 in 10.0 mi NNE 5.8 mph - N/A   Clear
10:53 AM 57.9 °F - 39.9 °F 51% 30.11 in 10.0 mi Variable 4.6 mph - N/A   Clear
11:53 AM 57.0 °F - 36.0 °F 45% 30.09 in 10.0 mi NW 3.5 mph - N/A   Partly Cloudy
12:53 PM 61.0 °F - 36.0 °F 39% 30.07 in 10.0 mi West 4.6 mph - N/A   Partly Cloudy
1:53 PM 62.1 °F - 34.0 °F 35% 30.05 in 10.0 mi Variable 3.5 mph - N/A   Clear
2:53 PM 63.0 °F - 35.1 °F 35% 30.03 in 10.0 mi East 5.8 mph - N/A   Clear
3:53 PM 64.0 °F - 34.0 °F 33% 30.01 in 10.0 mi North 5.8 mph - N/A   Clear
4:53 PM 64.9 °F - 35.1 °F 33% 30.00 in 10.0 mi Calm Calm - N/A   Clear
5:53 PM 63.0 °F - 35.1 °F 35% 29.99 in 10.0 mi Calm Calm - N/A   Partly Cloudy
6:53 PM 62.1 °F - 37.0 °F 39% 29.98 in 10.0 mi South 6.9 mph - N/A   Clear
7:53 PM 60.1 °F - 35.1 °F 39% 29.97 in 10.0 mi SW 5.8 mph - N/A   Clear
8:53 PM 54.0 °F - 39.0 °F 57% 29.97 in 10.0 mi Calm Calm - N/A   Clear
9:53 PM 51.1 °F - 37.0 °F 59% 29.98 in 10.0 mi Calm Calm - N/A   Clear
10:53 PM 46.9 °F - 42.1 °F 83% 29.98 in 10.0 mi Calm Calm - N/A   Clear
11:53 PM 45.0 °F - 39.0 °F 80% 29.98 in 10.0 mi Calm Calm - N/A   Clear